| time (UTC) | temp C | wind direction | speed KPH | gust KPH | rain 1hr cm | rain 24hr cm | rain mn cm | humidity % | barometer mb |
| 20260504081810 | 32 | 0.0 | 0.0 | 0.00 | 0.00 | 0.00 | 43 | 929.4 | |
| 20260504080803 | 32 | 0.0 | 0.0 | 0.00 | 0.00 | 0.00 | 43 | 929.6 | |
| 20260504050600 | 30 | 0.0 | 0.0 | 0.00 | 0.00 | 0.00 | 50 | 932.6 | |
| 20260504045553 | 30 | 0.0 | 0.0 | 0.00 | 0.00 | 0.00 | 51 | 932.7 | |
| 20260504044546 | 30 | 0.0 | 0.0 | 0.00 | 0.00 | 0.00 | 52 | 932.8 | |
| 20260504043539 | 30 | 0.0 | 0.0 | 0.00 | 0.00 | 0.00 | 51 | 932.9 | |
| 20260504042532 | 30 | 0.0 | 0.0 | 0.00 | 0.00 | 0.00 | 51 | 932.9 | |
| 20260504041525 | 30 | 0.0 | 0.0 | 0.00 | 0.00 | 0.00 | 52 | 933.1 | |
| 20260504040518 | 30 | 0.0 | 0.0 | 0.00 | 0.00 | 0.00 | 52 | 933.1 | |
| 20260504035511 | 30 | 0.0 | 0.0 | 0.00 | 0.00 | 0.00 | 55 | 933.1 | |
| 20260504034505 | 30 | 0.0 | 0.0 | 0.00 | 0.00 | 0.00 | 51 | 933.2 | |
| 20260504033458 | 30 | 0.0 | 0.0 | 0.00 | 0.00 | 0.00 | 53 | 933.3 | |
| 20260504032451 | 30 | 0.0 | 0.0 | 0.00 | 0.00 | 0.00 | 53 | 933.3 | |
| 20260504031444 | 30 | 0.0 | 0.0 | 0.00 | 0.00 | 0.00 | 53 | 933.2 | |
| 20260504030437 | 30 | 0.0 | 0.0 | 0.00 | 0.00 | 0.00 | 54 | 933.1 | |
| 20260504025430 | 30 | 0.0 | 0.0 | 0.00 | 0.00 | 0.00 | 54 | 933.0 | |
| 20260504024424 | 30 | 0.0 | 0.0 | 0.00 | 0.00 | 0.00 | 55 | 933.0 | |
| 20260504023417 | 30 | 0.0 | 0.0 | 0.00 | 0.00 | 0.00 | 54 | 932.9 | |
| 20260504022410 | 30 | 0.0 | 0.0 | 0.00 | 0.00 | 0.00 | 55 | 932.9 | |
| 20260504021403 | 30 | 0.0 | 0.0 | 0.00 | 0.00 | 0.00 | 54 | 932.7 | |
| 20260504020356 | 30 | 0.0 | 0.0 | 0.00 | 0.00 | 0.00 | 55 | 932.8 | |
| 20260504015349 | 30 | 0.0 | 0.0 | 0.00 | 0.00 | 0.00 | 55 | 932.6 | |
| 20260504014345 | 30 | 0.0 | 0.0 | 0.00 | 0.00 | 0.00 | 54 | 932.6 | |
| 20260504013335 | 30 | 0.0 | 0.0 | 0.00 | 0.00 | 0.00 | 54 | 932.4 | |
| 20260504012328 | 30 | 0.0 | 0.0 | 0.00 | 0.00 | 0.00 | 55 | 932.3 | |
| 20260504011322 | 30 | 0.0 | 0.0 | 0.00 | 0.00 | 0.00 | 55 | 931.9 | |
| 20260504010315 | 30 | 0.0 | 0.0 | 0.00 | 0.00 | 0.00 | 54 | 931.9 | |
| 20260504005308 | 30 | 0.0 | 0.0 | 0.00 | 0.00 | 0.00 | 55 | 931.4 | |
| 20260504004301 | 30 | 0.0 | 0.0 | 0.00 | 0.00 | 0.00 | 54 | 931.2 | |
| 20260504003254 | 31 | 0.0 | 0.0 | 0.00 | 0.00 | 0.00 | 54 | 931.0 | |
| 20260504002247 | 31 | 0.0 | 0.0 | 0.00 | 0.00 | 0.00 | 53 | 930.9 | |
| 20260504001240 | 31 | 0.0 | 0.0 | 0.00 | 0.00 | 0.00 | 53 | 930.8 | |
| 20260504000234 | 31 | 0.0 | 0.0 | 0.00 | 0.00 | 0.00 | 54 | 930.6 | |
| 20260503235226 | 31 | 0.0 | 0.0 | 0.00 | 0.00 | 0.00 | 54 | 930.6 | |
| 20260503234219 | 31 | 0.0 | 0.0 | 0.00 | 0.00 | 0.00 | 54 | 930.6 | |
| 20260503233212 | 31 | 0.0 | 0.0 | 0.00 | 0.00 | 0.00 | 53 | 930.5 | |
| 20260503232205 | 31 | 0.0 | 0.0 | 0.00 | 0.00 | 0.00 | 54 | 930.4 | |
| 20260503231158 | 31 | 0.0 | 0.0 | 0.00 | 0.00 | 0.00 | 54 | 930.4 | |
| 20260503230152 | 31 | 0.0 | 0.0 | 0.00 | 0.00 | 0.00 | 54 | 930.3 | |
| 20260503225145 | 31 | 0.0 | 0.0 | 0.00 | 0.00 | 0.00 | 54 | 930.3 | |
| 20260503224138 | 31 | 0.0 | 0.0 | 0.00 | 0.00 | 0.00 | 54 | 930.3 | |
| 20260503223131 | 31 | 0.0 | 0.0 | 0.00 | 0.00 | 0.00 | 54 | 930.3 | |
| 20260503222124 | 31 | 0.0 | 0.0 | 0.00 | 0.00 | 0.00 | 54 | 930.3 | |
| 20260503221118 | 31 | 0.0 | 0.0 | 0.00 | 0.00 | 0.00 | 55 | 930.3 | |
| 20260503220111 | 31 | 0.0 | 0.0 | 0.00 | 0.00 | 0.00 | 55 | 930.1 | |
| 20260503215104 | 31 | 0.0 | 0.0 | 0.00 | 0.00 | 0.00 | 55 | 930.3 | |
| 20260503214057 | 31 | 0.0 | 0.0 | 0.00 | 0.00 | 0.00 | 55 | 930.5 | |
| 20260503213050 | 31 | 0.0 | 0.0 | 0.00 | 0.00 | 0.00 | 55 | 930.5 | |
| 20260503212043 | 31 | 0.0 | 0.0 | 0.00 | 0.00 | 0.00 | 54 | 930.4 | |
| 20260503211036 | 31 | 0.0 | 0.0 | 0.00 | 0.00 | 0.00 | 54 | 930.6 | |
| 20260503210030 | 31 | 0.0 | 0.0 | 0.00 | 0.00 | 0.00 | 54 | 930.7 | |
| 20260503205023 | 31 | 0.0 | 0.0 | 0.00 | 0.00 | 0.00 | 54 | 930.5 | |
| 20260503204016 | 31 | 0.0 | 0.0 | 0.00 | 0.00 | 0.00 | 54 | 930.7 | |
| 20260503203009 | 31 | 0.0 | 0.0 | 0.00 | 0.00 | 0.00 | 54 | 931.0 | |
| 20260503202002 | 31 | 0.0 | 0.0 | 0.00 | 0.00 | 0.00 | 54 | 930.9 | |
| 20260503200955 | 31 | 0.0 | 0.0 | 0.00 | 0.00 | 0.00 | 54 | 931.0 | |
| 20260503195948 | 31 | 0.0 | 0.0 | 0.00 | 0.00 | 0.00 | 54 | 930.9 | |
| 20260503194942 | 31 | 0.0 | 0.0 | 0.00 | 0.00 | 0.00 | 54 | 930.8 | |
| 20260503193935 | 31 | 0.0 | 0.0 | 0.00 | 0.00 | 0.00 | 54 | 930.8 | |
| 20260503192928 | 31 | 0.0 | 0.0 | 0.00 | 0.00 | 0.00 | 55 | 930.9 | |
| 20260503191921 | 31 | 0.0 | 0.0 | 0.00 | 0.00 | 0.00 | 55 | 931.1 | |
| 20260503190914 | 31 | 0.0 | 0.0 | 0.00 | 0.00 | 0.00 | 55 | 931.3 | |
| 20260503185907 | 31 | 0.0 | 0.0 | 0.00 | 0.00 | 0.00 | 55 | 931.6 | |
| 20260503184901 | 31 | 0.0 | 0.0 | 0.00 | 0.00 | 0.00 | 54 | 931.7 | |
| 20260503183854 | 31 | 0.0 | 0.0 | 0.00 | 0.00 | 0.00 | 54 | 931.5 | |
| 20260503182847 | 31 | 0.0 | 0.0 | 0.00 | 0.00 | 0.00 | 54 | 931.7 | |
| 20260503181840 | 31 | 0.0 | 0.0 | 0.00 | 0.00 | 0.00 | 54 | 931.7 | |
| 20260503180833 | 31 | 0.0 | 0.0 | 0.00 | 0.00 | 0.00 | 54 | 931.7 | |
| 20260503175826 | 31 | 0.0 | 0.0 | 0.00 | 0.00 | 0.00 | 54 | 931.8 | |
| 20260503174820 | 31 | 0.0 | 0.0 | 0.00 | 0.00 | 0.00 | 53 | 931.9 | |
| 20260503173813 | 31 | 0.0 | 0.0 | 0.00 | 0.00 | 0.00 | 53 | 931.9 | |
| 20260503172806 | 31 | 0.0 | 0.0 | 0.00 | 0.00 | 0.00 | 52 | 931.8 | |
| 20260503171759 | 31 | 0.0 | 0.0 | 0.00 | 0.00 | 0.00 | 52 | 931.9 | |
| 20260503170752 | 31 | 0.0 | 0.0 | 0.00 | 0.00 | 0.00 | 52 | 932.1 | |
| 20260503150627 | 31 | 0.0 | 0.0 | 0.00 | 0.00 | 0.00 | 53 | 931.0 | |
| 20260503130505 | 32 | 0.0 | 0.0 | 0.00 | 0.00 | 0.00 | 48 | 928.6 |